Location: Amherst
(42.5000°N, 72.5000°W)
Time: 14:29:32
(UTC-04:00)

ISS - Visible Passes

Search period start: 28 May 2017 00:00
Search period end: 07 June 2017 00:00
Orbit: 402 x 408 km, 51.6° (Epoch: 29 May)

Date Brightness Start Highest point End Pass type
(mag) Time Alt. Az. Time Alt. Az. Time Alt. Az.
28 May -0.9 00:20:03 10° NW 00:22:25 18° N 00:24:47 10° NE visible
28 May -1.6 01:56:17 10° NW 01:57:35 21° NW 01:57:35 21° NW visible
28 May -1.2 21:50:03 10° WNW 21:52:47 23° NNW 21:55:32 10° NE visible
28 May -0.8 23:27:54 10° NW 23:30:08 17° N 23:32:21 10° NE visible
29 May -1.6 01:04:21 10° NW 01:06:25 26° N 01:06:25 26° N visible
29 May -1.8 20:57:34 10° W 21:00:35 32° NNW 21:03:36 10° NE visible
29 May -0.8 22:35:35 10° NW 22:37:49 17° N 22:40:02 10° NE visible
30 May -1.5 00:12:25 10° NW 00:15:09 23° NNE 00:15:37 23° NNE visible
30 May -0.9 21:43:07 10° NW 21:45:30 18° N 21:47:53 10° NE visible
30 May -1.1 23:20:24 10° NW 23:22:53 19° NNE 23:24:58 12° NE visible
31 May -1.3 00:56:37 10° NW 00:57:36 18° NW 00:57:36 18° NW visible
31 May -1.1 20:50:33 10° WNW 20:53:12 22° NNW 20:55:51 10° NE visible
31 May -1.0 22:28:17 10° NW 22:30:33 17° N 22:32:50 10° NE visible
01 Jun -2.0 00:04:38 10° NW 00:07:03 32° N 00:07:03 32° N visible
01 Jun -0.9 21:36:00 10° NW 21:38:12 16° N 21:40:26 10° NE visible
01 Jun -1.8 23:12:40 10° NW 23:15:30 26° NNE 23:16:32 22° NE visible
02 Jun -0.8 00:48:57 10° WNW 00:49:10 11° WNW 00:49:10 11° WNW visible
02 Jun -1.4 22:20:39 10° NW 22:23:13 20° NNE 22:25:47 10° ENE visible
02 Jun -2.1 23:56:50 10° NW 23:58:42 31° NW 23:58:42 31° NW visible
03 Jun -1.2 21:28:32 10° NW 21:30:52 18° N 21:33:12 10° NE visible
03 Jun -2.9 23:04:49 10° NW 23:08:00 43° NNE 23:08:16 42° NE visible
04 Jun -2.1 22:12:48 10° NW 22:15:45 29° NNE 22:17:51 15° ENE visible
04 Jun -1.7 23:49:10 10° WNW 23:50:30 21° WNW 23:50:30 21° WNW visible
05 Jun -1.6 21:20:46 10° NW 21:23:26 22° NNE 21:26:06 10° ENE visible
05 Jun -3.8 22:56:58 10° NW 23:00:07 80° NW 23:00:07 80° NW visible
06 Jun -3.2 22:04:52 10° NW 22:08:07 51° NNE 22:09:45 25° E visible
06 Jun -1.1 23:41:51 10° W 23:42:24 13° W 23:42:24 13° W visible
